Forside
METAR-TAF:

METAR-TAF

Lufthavne :

Claremore, Oklahoma, USA

Breddekreds: 36-17-40N, længdekreds: 095-28-47W, højde: 221 m

Aktuelle vejr

Denne rapport blev lavet for 18 minutter siden, kl. 18:15 UTC
Vind 19 kt fra sydsydøst med vindstød på up til 30 kt
Temperatur 5°C
Fugtighed 60%
Tryk 1018 hPa
Sigt: 16.1 km
skyfri

METAR: KGCM 211815Z AUTO 16019G30KT 10SM CLR 05/M02 A3007 RMK AO2 TSNO

Tid: 12:33 (18:33 UTC)


TAF: fraværende

Vejrobservationer og prognoser fra mere end 4000 lufthavne (METAR og TAF).

De gule og røde prikker repræsenterer de meteorologiske stationer.

Flyt musen over at se navnet på stationen.

Så klik over at se vejr observationer og prognoser.

At skifte det kort: Klik på de grønne knapper med et sort kors for at zoome ind; på den grønne knap med en bindestreg for at zoome ud; eller på de grønne pile for tilstødende kort.


METAR-TAF: